Location: Bittkow
(50.3000°N, 19.0000°E)
Time: 13:24:49
(UTC+00:00)

USA 234 - Pass Details

Date: 19 September 2020
Orbit: 1102 x 1106 km, 123.0° (Epoch: 16 October)

Event Time Altitude Azimuth Distance (km) Brightness Sun altitude
Rises 01:22:45 0° 124° (ESE) 3,911 6.3 -27.5°
Reaches altitude 10° 01:25:14 10° 125° (SE) 2,955 5.6 -27.2°
Maximum altitude 01:31:47 81° 213° (SSW) 1,119 3.1 -26.4°
Enters shadow 01:37:55 12° 301° (WNW) 2,802 5.2 -25.7°
